Location: Calberlah
(52.4230°N, 10.6240°E)
Time: 05:20:37
(UTC+00:00)

Iridium 4 Rocket - Pass Details

Date: 19 May 2025
Orbit: 582 x 887 km, 86.9° (Epoch: 14 June)

Event Time Altitude Azimuth Distance (km) Brightness Sun altitude
Rises 19:57:51 0° 355° (N) 3,126 7.5 -6.0°
Reaches altitude 10° 20:00:04 10° 355° (N) 2,247 6.8 -6.3°
Maximum altitude 20:05:07 83° 268° (W) 793 3.7 -6.8°
Drops below altitude 10° 20:10:35 10° 181° (S) 2,424 5.7 -7.4°
Sets 20:13:03 0° 181° (S) 3,390 6.4 -7.6°
